Retour au catalogue

COSMOS 2266

ActifNavigationPO
NORAD 22888·PAYLOAD·🇷🇺 Russia

Lancé Nov 2, 1993 depuis Plesetsk Cosmodrome

Loading…

Prochains Passages (prochaines 24 heures)

TLE

FraisSource: Space-Track

Époque: Sep 14, 2026, 19:38 UTC

1 22888U 93070A   26257.81869459  .00000058  00000-0  44682-4 0  9990
2 22888  82.9544  14.8445 0046847 297.8925 227.4965 13.75181901646343

Suivez COSMOS 2266 en temps réel avec AllMySat

Download on the App Store